テンペル第1彗星

9P/Tempel 1 (2016)

English version
Home page
Updated on May 20, 2019

---------------------------------------------------------------------

・ プロフィール

・ 写真集

・ 軌道要素

Epoch 2019 Apr. 27.0 TT = JDT 2458600.5
T 2016 Aug. 2.94718 TT                                  MPCW
q   1.5431044            (2000.0)            P               Q
n   0.17652415     Peri.  179.28569     -0.37401859     +0.91181257
a   3.1472649      Node    68.73868     -0.85179137     -0.26547489
e   0.5096999      Incl.   10.47513     -0.36682634     -0.31324260
P   5.58
From 6976 observations 1972 Jan. 20-2019 Jan. 2, mean residual 0".5.
     Nongravitational parameters A1 = +0.01, A2 = +0.0015.

・ 星図

・ 光度変化

        m1 = 14.0 + 5 logΔ +  7.5 log r  [    ,-290]  (              〜2015年10月17日)
        m1 =  6.0 + 5 logΔ + 25   log r  [-290, 195]  (2015年10月17日〜2017年 2月13日)
        m1 = 11.5 + 5 logΔ + 10.0 log r  [ 195,    ]  (2017年 2月13日〜              )

---------------------------------------------------------------------

軌道要素はM.P.E.C. 2019-J142に掲載されたものです。
星図はステラナビゲータ Ver.8 (アストロアーツ) で作成したものです。
光度グラフはComet for Windowsで作成したものです。

---------------------------------------------------------------------

Copyright(C) Seiichi Yoshida (comet@aerith.net). All rights reserved.